[[{"header":{"parameterUnit":"m.s-1","parameterCategory":1,"la1":30.2991,"la2":30.254,"lo1":-89.0895,"lo2":-89.0444,"dy":0.0017,"dx":0.0017,"nx":28,"ny":28,"refTime":"2024-12-15T03:00:00:Z","depth":0,"parameterNumber":2,"parameterNumberName":"U-component_of_WINDS"},"data":[0,0,0,0,0,0,0,0,0,0,0,0,0,0,0,0,0,0,0,0,0,0,0,0,0,0,0,0,0,0,0,0,0,0,0,0,0,0,0,0,0,0,0,0,0,0,0,0,0,0,0,0,0,0,0,0,0,0,-4.6575,-4.6575,0,-4.6598,-4.6598,-4.6599,-4.6528,-4.6526,-4.6523,-4.6521,-4.6545,-4.6548,-4.655,0,0,0,0,0,0,0,0,0,0,0,0,0,-4.6473,-4.6475,-4.6575,-4.6575,-4.6576,-4.6598,-4.6598,-4.6599,-4.6528,-4.6526,-4.6523,-4.652,-4.6544,-4.6547,-4.6551,0,0,0,0,0,0,0,0,0,0,0,0,0,-4.6509,-4.6476,-4.6575,-4.6543,-4.654,-4.6598,-4.6598,-4.6599,-4.6529,-4.6525,-4.6522,-4.6519,-4.6543,-4.6547,-4.6551,-4.664,0,0,-4.6563,-4.6565,0,0,0,0,0,0,0,0,-4.6507,-4.6512,-4.6547,-4.6545,-4.6543,-4.6557,-4.6571,-4.6613,-4.653,-4.6533,-4.6521,-4.6518,-4.6552,-4.6555,-4.6566,-4.6642,-4.6643,-4.6564,-4.6566,-4.6568,-4.6569,0,0,0,0,0,0,0,-4.6504,-4.6511,-4.6584,-4.6548,-4.6545,-4.6529,-4.653,-4.6579,-4.656,-4.6533,-4.6528,-4.6531,-4.655,-4.6563,-4.6566,-4.6643,-4.6563,-4.6567,-4.6569,-4.6571,-4.6796,-4.68,0,0,0,0,0,0,-4.6506,-4.6509,-4.6583,-4.6585,-4.6516,-4.6533,-4.6535,-4.6555,-4.656,-4.6557,-4.6534,-4.6528,-4.6557,-4.6562,-4.6567,-4.6673,-4.6568,-4.6571,-4.6574,-4.6793,-4.6797,-4.6801,0,0,0,0,0,0,-4.6504,-4.6513,-4.6582,-4.6546,-4.6553,-4.6538,-4.6562,-4.6558,-4.657,-4.6561,-4.6557,-4.655,-4.6555,-4.6561,-4.6623,-4.6673,-4.6573,-4.6577,-4.6788,-4.6794,-4.6799,-4.6885,0,0,0,0,0,0,-4.6501,-4.6513,-4.6545,-4.6547,-4.6556,-4.6638,-4.6565,-4.656,-4.6577,-4.6569,-4.6575,-4.6573,-4.6553,-4.6618,-4.6627,-4.6676,-4.658,-4.6784,-4.6791,-4.6797,-4.6878,-4.6893,-4.6906,0,0,0,0,0,-4.6498,-4.6568,-4.6547,-4.6557,-4.6596,-4.6641,-4.6646,-4.6621,-4.6582,-4.6615,-4.661,-4.6573,-4.6667,-4.6625,-4.6635,-4.6686,-4.678,-4.6789,-4.6797,-4.6872,-4.689,-4.6906,0,0,0,0,0,0,-4.6571,-4.6567,-4.6544,-4.6617,-4.663,-4.6629,-4.6669,-4.6641,-4.6665,-4.6657,-4.6626,-4.6628,-4.6696,-4.6697,-4.6651,-4.6774,-4.6717,-4.6727,-4.677,-4.6788,-4.6802,-4.6799,-4.6583,0,0,0,0,0,-4.6596,-4.6633,-4.6627,-4.6692,-4.67,-4.6685,-4.6703,-4.6684,-4.6695,-4.67,-4.6699,-4.6712,-4.6745,-4.6767,-4.6796,-4.6879,-4.688,-4.6919,-4.6933,-4.6945,-4.6954,-4.7,-4.7018,-4.6827,-4.6827,-4.6827,0,0,-4.6648,-4.665,-4.6674,-4.6707,-4.6715,-4.6754,-4.6689,-4.6732,-4.6761,-4.6706,-4.6765,-4.6766,-4.6779,-4.6852,-4.6885,-4.6855,-4.7008,-4.6955,-4.6965,-4.6967,-4.701,-4.7028,-4.7045,-4.6833,-4.6832,-4.6831,0,0,-4.6761,-4.6766,-4.6822,-4.6832,-4.6845,-4.6834,-4.6848,-4.6852,-4.6851,-4.691,-4.687,-4.6905,-4.6961,-4.6973,-4.6986,-4.711,-4.7077,-4.712,-4.7193,-4.7238,-4.7253,-4.7266,-4.7311,-4.7327,-4.713,-4.713,-4.713,0,-4.6823,-4.6879,-4.6854,-4.6901,-4.6918,-4.6872,-4.6929,-4.694,-4.6962,-4.6975,-4.6942,-4.7014,-4.702,-4.7096,-4.7127,-4.7139,-4.7155,-4.7118,-4.7253,-4.7266,-4.7278,-4.732,-4.7337,-4.7135,-4.7135,-4.7134,-4.7134,0,-4.6955,-4.6996,-4.704,-4.7063,-4.7085,-4.7137,-4.7121,-4.7146,-4.7127,-4.7121,-4.7183,-4.7189,-4.7219,-4.7237,-4.7217,-4.7312,-4.7294,-4.7258,-4.7199,-4.7302,-4.7341,-4.7357,-4.7142,-4.7141,-4.7139,-4.7138,0,0,-4.7111,-4.7124,-4.714,-4.7151,-4.7165,-4.7196,-4.7248,-4.7278,-4.7301,-4.732,-4.7363,-4.7414,-4.7382,-4.7397,-4.7379,-4.742,-4.7519,-4.7379,-4.7379,-4.7405,-4.7625,-4.7652,-4.7671,-4.7499,-4.7502,-4.7504,-4.7624,0,-4.7223,-4.731,-4.7291,-4.7377,-4.7416,-4.7376,-4.7421,-4.7435,-4.7432,-4.7465,-4.7462,-4.7499,-4.7453,-4.7463,-4.7501,-4.7499,-4.7563,-4.749,-4.7539,-4.7541,-4.7535,-4.7691,-4.7718,-4.7831,-4.764,-4.7642,-4.7644,0,-4.7363,-4.7388,-4.7479,-4.7489,-4.7505,-4.7545,-4.7574,-4.7606,-4.7622,-4.7618,-4.7638,-4.7613,-4.7666,-4.7609,-4.7682,-4.7633,-4.7653,-4.7656,-4.766,-4.7662,-4.7597,-4.7697,-4.7866,-4.7883,-4.7668,-4.7666,-4.7664,0,-4.7468,-4.7525,-4.7587,-4.7598,-4.7611,-4.7641,-4.7649,-4.7662,-4.7683,-4.7709,-4.7723,-4.7755,-4.7772,-4.7798,-4.7784,-4.7743,-4.7861,-4.7801,-4.7859,-4.7859,-4.7883,-4.7881,-4.8057,-4.7898,-4.7897,-4.7897,-4.7897,0,-4.7593,-4.765,-4.7634,-4.7672,-4.7736,-4.7716,-4.778,-4.7782,-4.7796,-4.7835,-4.7803,-4.784,-4.782,-4.7856,-4.7846,-4.7909,-4.7917,-4.7916,-4.7912,-4.7918,-4.7918,-4.7929,-4.792,-4.7902,-4.7901,-4.79,-4.7899,0,-4.7719,-4.771,-4.7776,-4.7785,-4.7789,-4.7836,-4.7844,-4.7881,-4.7877,-4.7927,-4.7938,-4.7933,-4.7975,-4.7964,-4.8009,-4.8003,-4.8083,-4.8069,-4.8077,-4.8073,-4.8131,-4.8126,-4.8318,-4.8343,-4.8169,-4.8171,-4.8172,0,-4.7798,-4.7841,-4.7857,-4.7881,-4.7891,-4.793,-4.7953,-4.7936,-4.7961,-4.7986,-4.802,-4.8059,-4.8089,-4.8159,-4.8159,-4.8195,-4.8182,-4.8248,-4.8187,-4.8192,-4.8183,-4.818,-4.8185,-4.8259,-4.8261,-4.8262,-4.8264,0,-4.794,-4.7936,-4.7969,-4.8002,-4.803,-4.8056,-4.8078,-4.81,-4.8086,-4.8116,-4.8159,-4.8183,-4.8231,-4.8271,-4.8304,-4.8313,-4.8287,-4.8284,-4.8298,-4.8304,-4.8306,-4.8306,-4.8109,-4.8278,-4.8277,-4.8276,-4.8275,-4.8274,-4.8045,-4.8083,-4.81,-4.814,-4.8156,-4.8179,-4.8214,-4.8217,-4.8253,-4.829,-4.8279,-4.8329,-4.8349,-4.8391,-4.8404,-4.8444,-4.8419,-4.8441,-4.8446,-4.8451,-4.8459,-4.8302,-4.845,-4.845,-4.8449,-4.8449,-4.8449,0,-4.8185,-4.8196,-4.8233,-4.8266,-4.8298,-4.8273,-4.8298,-4.8326,-4.837,-4.8391,-4.8423,-4.8474,-4.8514,-4.852,-4.8559,-4.8589,-4.8579,-4.86,-4.8597,-4.8599,-4.8478,-4.8461,-4.8608,-4.8608,-4.8608,-4.8608,-4.8608,-4.8608,-4.8262,-4.8325,-4.8323,-4.8395,-4.8405,-4.8454,-4.8471,-4.8493,-4.8509,-4.8568,-4.8602,-4.8606,-4.8622,-4.8662,-4.8698,-4.8699,-4.8715,-4.8741,-4.8737,-4.8624,-4.8608,-4.8592,-4.8576,-4.8745,-4.8745,-4.8855,-4.8856,-4.8857]},{"header":{"parameterUnit":"m.s-1","parameterCategory":1,"la1":30.2991,"la2":30.254,"lo1":-89.0895,"lo2":-89.0444,"dy":0.0017,"dx":0.0017,"nx":28,"ny":28,"refTime":"2024-12-15T03:00:00:Z","depth":0,"parameterNumber":3,"parameterNumberName":"V-component_of_WINDS"},"data":[0,0,0,0,0,0,0,0,0,0,0,0,0,0,0,0,0,0,0,0,0,0,0,0,0,0,0,0,0,0,0,0,0,0,0,0,0,0,0,0,0,0,0,0,0,0,0,0,0,0,0,0,0,0,0,0,0,0,0.4713,0.4712,0,0.4663,0.4663,0.4662,0.471,0.4712,0.4714,0.4716,0.4657,0.4653,0.465,0,0,0,0,0,0,0,0,0,0,0,0,0,0.4844,0.4841,0.4713,0.4712,0.4712,0.4663,0.4663,0.4662,0.471,0.4712,0.4714,0.4716,0.4658,0.4654,0.465,0,0,0,0,0,0,0,0,0,0,0,0,0,0.479,0.484,0.4713,0.473,0.4731,0.4664,0.4663,0.4662,0.4709,0.4712,0.4715,0.4718,0.4659,0.4654,0.4649,0.456,0,0,0.4634,0.4632,0,0,0,0,0,0,0,0,0.4793,0.4785,0.4728,0.4729,0.473,0.4696,0.4687,0.4627,0.4708,0.4717,0.4716,0.4719,0.4667,0.4661,0.4645,0.4558,0.4555,0.4633,0.463,0.4628,0.4627,0,0,0,0,0,0,0,0.4796,0.4787,0.4693,0.4727,0.4728,0.4738,0.4734,0.4676,0.4676,0.4717,0.472,0.4714,0.4668,0.465,0.4644,0.4554,0.4633,0.4629,0.4626,0.4624,0.4394,0.4391,0,0,0,0,0,0,0.4799,0.479,0.4695,0.4692,0.4769,0.4733,0.4728,0.4704,0.4677,0.4676,0.4711,0.4716,0.4657,0.465,0.4642,0.4538,0.4628,0.4623,0.4621,0.4397,0.4393,0.439,0,0,0,0,0,0,0.4802,0.479,0.4697,0.4742,0.4731,0.4728,0.47,0.4701,0.4684,0.4673,0.4673,0.4694,0.4659,0.465,0.4582,0.4537,0.4621,0.4617,0.44,0.4396,0.4391,0.4328,0,0,0,0,0,0,0.4805,0.4791,0.4758,0.4741,0.4728,0.4638,0.4697,0.4698,0.4676,0.4682,0.4657,0.4655,0.4661,0.4589,0.4577,0.4532,0.4613,0.4404,0.4398,0.4393,0.4334,0.4322,0.4312,0,0,0,0,0,0.481,0.474,0.4756,0.4744,0.4687,0.4635,0.4628,0.4638,0.4672,0.4638,0.4632,0.4656,0.4544,0.4582,0.4568,0.4521,0.4407,0.44,0.4393,0.4339,0.4324,0.4312,0,0,0,0,0,0,0.4748,0.4738,0.4755,0.4678,0.4658,0.4643,0.4601,0.4622,0.4589,0.4595,0.4607,0.4601,0.453,0.4518,0.456,0.4435,0.4481,0.4471,0.4445,0.443,0.4419,0.4423,0.4608,0,0,0,0,0,0.4726,0.4687,0.4679,0.4611,0.4601,0.4603,0.458,0.4591,0.4569,0.4559,0.4548,0.4524,0.4484,0.4456,0.4418,0.4334,0.4329,0.4295,0.4283,0.4274,0.4265,0.4221,0.4205,0.4367,0.4367,0.4367,0,0,0.4679,0.4668,0.4642,0.4599,0.4584,0.4542,0.4595,0.4547,0.4515,0.4551,0.4488,0.4478,0.4452,0.4376,0.4342,0.4364,0.422,0.4265,0.4258,0.4253,0.4212,0.4197,0.4183,0.4362,0.4363,0.4364,0,0,0.4572,0.456,0.4504,0.4489,0.4468,0.447,0.4457,0.444,0.4437,0.4374,0.4401,0.4362,0.4292,0.4273,0.4254,0.4144,0.4165,0.4132,0.4071,0.4028,0.4016,0.4005,0.3966,0.3952,0.4123,0.4122,0.4122,0,0.4515,0.4454,0.4471,0.4423,0.4403,0.4438,0.4381,0.4365,0.4331,0.4316,0.4343,0.4258,0.4242,0.4163,0.4137,0.412,0.4105,0.4134,0.4017,0.4006,0.3995,0.3959,0.3944,0.4119,0.4119,0.4119,0.412,0,0.4386,0.4344,0.4301,0.4272,0.4247,0.4194,0.4202,0.4175,0.4189,0.4188,0.4124,0.4108,0.4068,0.4051,0.4061,0.3973,0.3988,0.4016,0.4062,0.3976,0.3942,0.3928,0.4113,0.4114,0.4116,0.4117,0,0,0.4235,0.422,0.4204,0.4192,0.4173,0.4139,0.4088,0.4054,0.403,0.4006,0.3964,0.3906,0.3933,0.3911,0.392,0.3883,0.3798,0.3915,0.3914,0.3894,0.3701,0.368,0.3664,0.3813,0.381,0.3808,0.3703,0,0.4129,0.4044,0.4059,0.3975,0.3937,0.3971,0.3927,0.391,0.3908,0.3874,0.3872,0.3831,0.3869,0.3857,0.3821,0.3816,0.3759,0.3824,0.3771,0.3769,0.3777,0.3646,0.3623,0.3525,0.369,0.3688,0.3686,0,0.3991,0.3967,0.3881,0.3871,0.3855,0.3815,0.3786,0.3753,0.3735,0.3737,0.3715,0.3732,0.3681,0.373,0.3659,0.3702,0.3682,0.3677,0.3673,0.3668,0.3722,0.3637,0.3494,0.3479,0.3665,0.3667,0.3668,0,0.3891,0.3836,0.3779,0.3767,0.3753,0.3725,0.3718,0.3702,0.3681,0.3655,0.3641,0.3608,0.3589,0.3563,0.357,0.3605,0.3498,0.3547,0.3497,0.3497,0.3471,0.3473,0.3323,0.3459,0.3459,0.3459,0.346,0,0.377,0.3716,0.3734,0.3698,0.3639,0.3657,0.3597,0.3593,0.358,0.3543,0.357,0.3534,0.3547,0.3512,0.3517,0.3458,0.3449,0.3448,0.345,0.3446,0.3446,0.3432,0.3438,0.3456,0.3456,0.3457,0.3458,0,0.3647,0.3657,0.3597,0.359,0.3588,0.3544,0.3538,0.3504,0.3507,0.346,0.345,0.3452,0.3413,0.3419,0.3373,0.3377,0.3304,0.3314,0.3311,0.3313,0.3263,0.3268,0.3099,0.3078,0.3227,0.3226,0.3225,0,0.3569,0.3529,0.352,0.3499,0.3491,0.3455,0.3436,0.3452,0.343,0.3408,0.3376,0.334,0.3312,0.3247,0.3243,0.3209,0.3219,0.3162,0.3213,0.3211,0.3218,0.322,0.3216,0.3151,0.3149,0.3148,0.3147,0,0.3429,0.3437,0.3409,0.3382,0.3359,0.3338,0.332,0.33,0.3316,0.3289,0.3251,0.3229,0.3186,0.3149,0.3118,0.3108,0.3129,0.3132,0.3118,0.3112,0.3113,0.3112,0.3283,0.3135,0.3136,0.3137,0.3137,0.3138,0.3326,0.3293,0.3283,0.3251,0.324,0.3223,0.3192,0.3192,0.3162,0.313,0.3141,0.3098,0.3082,0.3043,0.303,0.2996,0.3016,0.2996,0.2991,0.2986,0.2981,0.3119,0.299,0.299,0.299,0.2991,0.2991,0,0.3188,0.3184,0.3155,0.3131,0.3105,0.3132,0.3114,0.309,0.3053,0.3038,0.3011,0.2968,0.2933,0.2929,0.2896,0.2869,0.2878,0.286,0.2862,0.2859,0.2964,0.2979,0.2854,0.2854,0.2854,0.2854,0.2854,0.2854,0.3113,0.3059,0.3066,0.3008,0.3004,0.2964,0.2951,0.2936,0.2925,0.2876,0.2849,0.2848,0.2837,0.2804,0.2774,0.2773,0.276,0.2738,0.2741,0.2838,0.2852,0.2865,0.2879,0.2735,0.2734,0.2639,0.2638,0.2637]}]]